When you browse on this site, cookies collect data to enhance your experience and personalize the content and advertising you see.
Visit our Privacy Policy to learn more. By continuing to use the site, you agree to this use of cookies and data.
EN

Hourly Weather Pogorelka

Today, 7 August, Friday

Time Temperature Precipitation Wind Pressure Humidity
00:00 +18°C° 0 mm 1 mps 756 mmHg 78%
01:00 +18°C° 0 mm 1 mps 757 mmHg 80%
02:00 +18°C° 0 mm 1 mps 757 mmHg 81%
03:00 +18°C° 0 mm 1 mps 757 mmHg 84%
04:00 +16°C° 0 mm 1 mps 757 mmHg 88%
05:00 +16°C° 0 mm 1 mps 757 mmHg 91%
06:00 +18°C° 0 mm 1 mps 757 mmHg 89%
07:00 +19°C° 0 mm 1 mps 757 mmHg 87%
08:00 +20°C° 0 mm 1 mps 758 mmHg 85%
09:00 +21°C° 0.1 mm 1 mps 758 mmHg 80%
10:00 +21°C° 0.1 mm 2 mps 758 mmHg 76%
11:00 +23°C° 0.1 mm 2 mps 757 mmHg 72%
12:00 +24°C° 0.1 mm 2 mps 757 mmHg 67%
13:00 +25°C° 0.1 mm 2 mps 757 mmHg 63%
14:00 +25°C° 0.1 mm 2 mps 758 mmHg 59%
15:00 +25°C° 0 mm 2 mps 757 mmHg 60%
16:00 +25°C° 0 mm 2 mps 757 mmHg 60%
17:00 +25°C° 0 mm 2 mps 757 mmHg 60%
18:00 +23°C° 0 mm 1 mps 757 mmHg 68%
19:00 +22°C° 0 mm 1 mps 757 mmHg 75%
20:00 +20°C° 0 mm 1 mps 757 mmHg 82%
21:00 +19°C° 0 mm 1 mps 757 mmHg 85%
22:00 +19°C° 0 mm 1 mps 757 mmHg 88%
23:00 +18°C° 0 mm 1 mps 757 mmHg 91%

Tomorrow, 8 August, Saturday

Time Temperature Precipitation Wind Pressure Humidity
00:00 +16°C° 0 mm 0 mps 757 mmHg 92%
01:00 +15°C° 0 mm 0 mps 757 mmHg 93%
02:00 +15°C° 0 mm 0 mps 757 mmHg 93%
03:00 +15°C° 0 mm 0 mps 757 mmHg 93%
04:00 +15°C° 0 mm 0 mps 757 mmHg 93%
05:00 +15°C° 0 mm 0 mps 757 mmHg 93%
06:00 +17°C° 0 mm 0 mps 757 mmHg 86%
07:00 +21°C° 0 mm 1 mps 757 mmHg 79%
08:00 +23°C° 0 mm 1 mps 757 mmHg 72%
09:00 +24°C° 0 mm 1 mps 756 mmHg 66%
10:00 +25°C° 0 mm 1 mps 756 mmHg 61%
11:00 +26°C° 0 mm 1 mps 756 mmHg 56%
12:00 +26°C° 0 mm 1 mps 756 mmHg 56%
13:00 +27°C° 0 mm 1 mps 755 mmHg 56%
14:00 +27°C° 0 mm 2 mps 755 mmHg 56%
15:00 +26°C° 0.1 mm 2 mps 755 mmHg 59%
16:00 +26°C° 0.1 mm 2 mps 754 mmHg 63%
17:00 +26°C° 0.1 mm 2 mps 754 mmHg 66%
18:00 +24°C° 0.1 mm 1 mps 754 mmHg 73%
19:00 +22°C° 0.1 mm 1 mps 754 mmHg 80%
20:00 +20°C° 0.1 mm 1 mps 754 mmHg 86%
21:00 +20°C° 0 mm 1 mps 753 mmHg 87%
22:00 +19°C° 0 mm 1 mps 753 mmHg 88%
23:00 +18°C° 0 mm 1 mps 753 mmHg 88%

Day after tomorrow, 9 August, Sunday

Time Temperature Precipitation Wind Pressure Humidity
00:00 +18°C° 0 mm 1 mps 753 mmHg 88%
01:00 +16°C° 0 mm 1 mps 753 mmHg 87%
02:00 +16°C° 0 mm 1 mps 753 mmHg 86%
03:00 +16°C° 0 mm 1 mps 753 mmHg 86%
04:00 +16°C° 0 mm 1 mps 753 mmHg 86%
05:00 +14°C° 0 mm 0 mps 753 mmHg 86%
06:00 +16°C° 0 mm 0 mps 753 mmHg 80%
07:00 +19°C° 0 mm 0 mps 753 mmHg 75%
08:00 +21°C° 0 mm 0 mps 753 mmHg 69%
09:00 +24°C° 0 mm 1 mps 753 mmHg 63%
10:00 +26°C° 0 mm 1 mps 753 mmHg 56%
11:00 +27°C° 0 mm 1 mps 753 mmHg 50%
12:00 +28°C° 0 mm 1 mps 752 mmHg 49%
13:00 +28°C° 0 mm 1 mps 752 mmHg 47%
14:00 +29°C° 0 mm 2 mps 752 mmHg 45%
15:00 +28°C° 0 mm 2 mps 751 mmHg 47%
16:00 +28°C° 0 mm 2 mps 751 mmHg 50%
17:00 +27°C° 0 mm 2 mps 751 mmHg 52%
18:00 +25°C° 0.1 mm 2 mps 751 mmHg 60%
19:00 +23°C° 0.1 mm 1 mps 751 mmHg 69%
20:00 +21°C° 0.1 mm 1 mps 751 mmHg 77%
21:00 +20°C° 0.1 mm 1 mps 751 mmHg 80%
22:00 +20°C° 0.1 mm 1 mps 751 mmHg 83%
23:00 +19°C° 0.1 mm 1 mps 751 mmHg 85%

10 August, Monday

Time Temperature Precipitation Wind Pressure Humidity
00:00 +19°C° 0 mm 1 mps 751 mmHg 88%
01:00 +18°C° 0 mm 1 mps 751 mmHg 90%
02:00 +18°C° 0 mm 1 mps 750 mmHg 92%
03:00 +18°C° 0 mm 1 mps 750 mmHg 93%
04:00 +18°C° 0 mm 1 mps 750 mmHg 94%
05:00 +18°C° 0 mm 1 mps 750 mmHg 95%
06:00 +18°C° 0 mm 2 mps 750 mmHg 89%
07:00 +20°C° 0 mm 2 mps 750 mmHg 83%
08:00 +21°C° 0 mm 2 mps 750 mmHg 78%
09:00 +23°C° 0.4 mm 2 mps 750 mmHg 75%
10:00 +24°C° 0.4 mm 3 mps 750 mmHg 72%
11:00 +24°C° 0.4 mm 3 mps 750 mmHg 69%
12:00 +25°C° 0.1 mm 3 mps 750 mmHg 64%
13:00 +25°C° 0.1 mm 4 mps 750 mmHg 60%
14:00 +26°C° 0.1 mm 4 mps 750 mmHg 55%
15:00 +25°C° 0 mm 4 mps 750 mmHg 53%
16:00 +23°C° 0 mm 4 mps 750 mmHg 52%
17:00 +22°C° 0 mm 4 mps 750 mmHg 51%
18:00 +20°C° 0 mm 4 mps 750 mmHg 59%
19:00 +18°C° 0 mm 3 mps 750 mmHg 68%
20:00 +16°C° 0 mm 3 mps 750 mmHg 76%
21:00 +14°C° 0 mm 3 mps 751 mmHg 81%
22:00 +13°C° 0 mm 3 mps 751 mmHg 85%
23:00 +12°C° 0 mm 3 mps 751 mmHg 90%

11 August, Tuesday

Time Temperature Precipitation Wind Pressure Humidity
00:00 +13°C° 0 mm 2 mps 751 mmHg 91%
01:00 +12°C° 0 mm 2 mps 751 mmHg 92%
02:00 +12°C° 0 mm 2 mps 751 mmHg 93%
03:00 +12°C° 0 mm 2 mps 751 mmHg 93%
04:00 +12°C° 0 mm 2 mps 751 mmHg 94%
05:00 +12°C° 0 mm 2 mps 751 mmHg 94%
06:00 +12°C° 0 mm 3 mps 751 mmHg 87%
07:00 +14°C° 0 mm 3 mps 751 mmHg 80%
08:00 +17°C° 0 mm 3 mps 751 mmHg 72%
09:00 +17°C° 0.1 mm 4 mps 751 mmHg 72%
10:00 +17°C° 0.1 mm 4 mps 751 mmHg 71%
11:00 +17°C° 0.1 mm 4 mps 751 mmHg 71%
12:00 +17°C° 0.1 mm 4 mps 751 mmHg 71%
13:00 +18°C° 0.1 mm 4 mps 751 mmHg 72%
14:00 +17°C° 0.1 mm 5 mps 751 mmHg 72%
15:00 +17°C° 0.1 mm 5 mps 751 mmHg 72%
16:00 +17°C° 0.1 mm 5 mps 751 mmHg 71%
17:00 +17°C° 0.1 mm 5 mps 751 mmHg 70%
18:00 +16°C° 0 mm 5 mps 752 mmHg 72%
19:00 +15°C° 0 mm 5 mps 752 mmHg 73%
20:00 +14°C° 0 mm 5 mps 752 mmHg 74%
21:00 +13°C° 0 mm 4 mps 752 mmHg 77%
22:00 +12°C° 0 mm 4 mps 752 mmHg 79%
23:00 +11°C° 0 mm 4 mps 752 mmHg 82%

12 August, Wednesday

Time Temperature Precipitation Wind Pressure Humidity
00:00 +11°C° 0 mm 4 mps 753 mmHg 84%
01:00 +10°C° 0 mm 4 mps 753 mmHg 86%
02:00 +10°C° 0 mm 3 mps 753 mmHg 89%
03:00 +10°C° 0 mm 3 mps 753 mmHg 89%
04:00 +10°C° 0 mm 3 mps 753 mmHg 89%
05:00 +10°C° 0 mm 3 mps 753 mmHg 89%
06:00 +11°C° 0 mm 4 mps 753 mmHg 82%
07:00 +13°C° 0 mm 4 mps 753 mmHg 74%
08:00 +14°C° 0 mm 4 mps 753 mmHg 67%
09:00 +15°C° 0 mm 4 mps 753 mmHg 61%
10:00 +17°C° 0 mm 4 mps 753 mmHg 56%
11:00 +18°C° 0 mm 4 mps 753 mmHg 50%
12:00 +18°C° 0 mm 4 mps 753 mmHg 50%
13:00 +18°C° 0 mm 4 mps 753 mmHg 50%
14:00 +18°C° 0 mm 3 mps 753 mmHg 50%
15:00 +18°C° 0 mm 3 mps 753 mmHg 51%
16:00 +18°C° 0 mm 3 mps 753 mmHg 53%
17:00 +17°C° 0 mm 3 mps 753 mmHg 55%
18:00 +16°C° 0 mm 3 mps 753 mmHg 61%
19:00 +14°C° 0 mm 2 mps 753 mmHg 68%
20:00 +13°C° 0 mm 2 mps 753 mmHg 74%
21:00 +12°C° 0 mm 2 mps 754 mmHg 78%
22:00 +10°C° 0 mm 2 mps 754 mmHg 82%
23:00 +9°C° 0 mm 2 mps 754 mmHg 87%
Show more